Wetterdaten: Freitag, 21.12.2012
Datum Zeit Temp. Auen Feucht Auen Luftdruck Regen Richtung Richtung Windben
21.12.2012 00:00 -1,8 C 96 % 1014,7 hPa 0,0 mm S-SO 154 1,6 km/h (1 Bft)
21.12.2012 00:05 -1,8 C 96 % 1014,8 hPa 0,0 mm S-SO 154 0,0 km/h (0 Bft)
21.12.2012 00:10 -1,8 C 96 % 1014,7 hPa 0,0 mm S-SO 154 0,0 km/h (0 Bft)
21.12.2012 00:15 -1,8 C 96 % 1014,7 hPa 0,0 mm S-SO 154 0,0 km/h (0 Bft)
21.12.2012 00:20 -1,8 C 96 % 1014,8 hPa 0,0 mm S-SO 154 0,0 km/h (0 Bft)
21.12.2012 00:25 -1,7 C 96 % 1014,8 hPa 0,0 mm S-SO 154 0,0 km/h (0 Bft)
21.12.2012 00:30 -1,7 C 96 % 1014,8 hPa 0,0 mm S-SW 196 1,6 km/h (1 Bft)
21.12.2012 00:35 -1,6 C 96 % 1014,7 hPa 0,0 mm S-SW 196 1,6 km/h (1 Bft)
21.12.2012 00:40 -1,6 C 96 % 1014,7 hPa 0,0 mm S-SW 196 0,0 km/h (0 Bft)
21.12.2012 00:45 -1,6 C 96 % 1014,7 hPa 0,0 mm SW 215 3,2 km/h (1 Bft)
21.12.2012 00:50 -1,6 C 96 % 1014,8 hPa 0,0 mm SW 227 1,6 km/h (1 Bft)
21.12.2012 00:55 -1,6 C 96 % 1014,8 hPa 0,0 mm W-SW 254 3,2 km/h (1 Bft)
21.12.2012 01:00 -1,5 C 96 % 1014,8 hPa 0,0 mm W-SW 254 3,2 km/h (1 Bft)
21.12.2012 01:05 -1,5 C 96 % 1014,7 hPa 0,0 mm W 281 3,2 km/h (1 Bft)
21.12.2012 01:10 -1,4 C 96 % 1014,7 hPa 0,0 mm W 281 3,2 km/h (1 Bft)
21.12.2012 01:15 -1,4 C 96 % 1014,7 hPa 0,0 mm W 281 3,2 km/h (1 Bft)
21.12.2012 01:20 -1,4 C 96 % 1014,7 hPa 0,0 mm W 279 3,2 km/h (1 Bft)
21.12.2012 01:25 -1,4 C 95 % 1014,7 hPa 0,0 mm W 274 3,2 km/h (1 Bft)
21.12.2012 01:30 -1,4 C 95 % 1014,7 hPa 0,0 mm W 274 3,2 km/h (1 Bft)
21.12.2012 01:35 -1,3 C 95 % 1014,6 hPa 0,0 mm W 274 1,6 km/h (1 Bft)
21.12.2012 01:40 -1,3 C 95 % 1014,6 hPa 0,0 mm W 274 0,0 km/h (0 Bft)
21.12.2012 01:45 -1,3 C 95 % 1014,5 hPa 0,0 mm W 274 0,0 km/h (0 Bft)
21.12.2012 01:50 -1,2 C 95 % 1014,5 hPa 0,0 mm W 274 0,0 km/h (0 Bft)
21.12.2012 01:55 -1,2 C 95 % 1014,5 hPa 0,0 mm W 274 0,0 km/h (0 Bft)
21.12.2012 02:00 -1,2 C 95 % 1014,6 hPa 0,0 mm W 274 0,0 km/h (0 Bft)
21.12.2012 02:05 -1,2 C 95 % 1014,5 hPa 0,0 mm W 274 0,0 km/h (0 Bft)
21.12.2012 02:10 -1,2 C 95 % 1014,6 hPa 0,0 mm W 274 0,0 km/h (0 Bft)
21.12.2012 02:15 -1,2 C 95 % 1014,5 hPa 0,0 mm W 274 0,0 km/h (0 Bft)
21.12.2012 02:20 -1,2 C 95 % 1014,5 hPa 0,0 mm W 274 0,0 km/h (0 Bft)
21.12.2012 02:25 -1,2 C 95 % 1014,5 hPa 0,0 mm W 274 0,0 km/h (0 Bft)
21.12.2012 02:30 -1,3 C 96 % 1014,4 hPa 0,0 mm W 274 0,0 km/h (0 Bft)
21.12.2012 02:35 -1,3 C 95 % 1014,4 hPa 0,0 mm W 274 0,0 km/h (0 Bft)
21.12.2012 02:40 -1,3 C 96 % 1014,4 hPa 0,0 mm W 274 0,0 km/h (0 Bft)
21.12.2012 02:45 -1,3 C 96 % 1014,3 hPa 0,0 mm W 274 0,0 km/h (0 Bft)
21.12.2012 02:50 -1,3 C 96 % 1014,3 hPa 0,0 mm N-NO 24 1,6 km/h (1 Bft)
21.12.2012 02:55 -1,3 C 96 % 1014,3 hPa 0,0 mm N-NO 24 0,0 km/h (0 Bft)
21.12.2012 03:00 -1,3 C 96 % 1014,2 hPa 0,0 mm O 88 3,2 km/h (1 Bft)
21.12.2012 03:05 -1,4 C 96 % 1014,1 hPa 0,0 mm O-SO 109 3,2 km/h (1 Bft)
21.12.2012 03:10 -1,4 C 96 % 1014,1 hPa 0,0 mm O-SO 109 3,2 km/h (1 Bft)
21.12.2012 03:15 -1,3 C 96 % 1014,0 hPa 0,0 mm O-SO 109 1,6 km/h (1 Bft)
21.12.2012 03:20 -1,4 C 96 % 1014,0 hPa 0,0 mm O-SO 109 1,6 km/h (1 Bft)
21.12.2012 03:25 -1,3 C 96 % 1014,0 hPa 0,0 mm O-SO 109 0,0 km/h (0 Bft)
21.12.2012 03:30 -1,3 C 96 % 1013,9 hPa 0,0 mm O-SO 109 0,0 km/h (0 Bft)
21.12.2012 03:35 -1,3 C 96 % 1013,9 hPa 0,0 mm O-SO 109 1,6 km/h (1 Bft)
21.12.2012 03:40 -1,3 C 96 % 1013,9 hPa 0,0 mm O-SO 109 0,0 km/h (0 Bft)
21.12.2012 03:45 -1,3 C 96 % 1013,9 hPa 0,0 mm O-SO 109 0,0 km/h (0 Bft)
21.12.2012 03:50 -1,2 C 96 % 1013,7 hPa 0,0 mm O-SO 109 0,0 km/h (0 Bft)
21.12.2012 03:55 -1,2 C 96 % 1013,7 hPa 0,0 mm O-SO 109 0,0 km/h (0 Bft)
21.12.2012 04:00 -1,2 C 96 % 1013,6 hPa 0,0 mm O-SO 109 0,0 km/h (0 Bft)
21.12.2012 04:05 -1,2 C 96 % 1013,7 hPa 0,0 mm O-SO 109 0,0 km/h (0 Bft)
21.12.2012 04:10 -1,1 C 96 % 1013,6 hPa 0,0 mm O-SO 109 0,0 km/h (0 Bft)
21.12.2012 04:15 -1,1 C 96 % 1013,5 hPa 0,0 mm O-SO 109 0,0 km/h (0 Bft)
21.12.2012 04:20 -1,1 C 96 % 1013,6 hPa 0,0 mm O-SO 109 0,0 km/h (0 Bft)
21.12.2012 04:25 -1,1 C 96 % 1013,5 hPa 0,0 mm O-SO 109 0,0 km/h (0 Bft)
21.12.2012 04:30 -1,0 C 96 % 1013,5 hPa 0,0 mm O-SO 109 0,0 km/h (0 Bft)
21.12.2012 04:35 -1,0 C 96 % 1013,5 hPa 0,0 mm O-SO 109 0,0 km/h (0 Bft)
21.12.2012 04:40 -1,0 C 96 % 1013,5 hPa 0,0 mm O-SO 109 0,0 km/h (0 Bft)
21.12.2012 04:45 -0,9 C 96 % 1013,5 hPa 0,0 mm O-SO 109 0,0 km/h (0 Bft)
21.12.2012 04:50 -0,9 C 96 % 1013,5 hPa 0,0 mm O-SO 109 0,0 km/h (0 Bft)
21.12.2012 04:55 -0,9 C 96 % 1013,5 hPa 0,0 mm O-SO 109 0,0 km/h (0 Bft)
21.12.2012 05:00 -0,9 C 96 % 1013,4 hPa 0,0 mm O-SO 109 0,0 km/h (0 Bft)
21.12.2012 05:05 -0,9 C 96 % 1013,4 hPa 0,0 mm O-SO 109 0,0 km/h (0 Bft)
21.12.2012 05:10 -0,9 C 96 % 1013,4 hPa 0,0 mm O-SO 109 0,0 km/h (0 Bft)
21.12.2012 05:15 -0,9 C 96 % 1013,4 hPa 0,2 mm O-SO 109 0,0 km/h (0 Bft)
21.12.2012 05:20 -0,9 C 96 % 1013,4 hPa 0,0 mm O-SO 109 0,0 km/h (0 Bft)
21.12.2012 05:25 -0,9 C 96 % 1013,4 hPa 0,0 mm O-SO 109 0,0 km/h (0 Bft)
21.12.2012 05:30 -0,9 C 96 % 1013,4 hPa 0,2 mm O-SO 109 0,0 km/h (0 Bft)
21.12.2012 05:35 -0,9 C 96 % 1013,4 hPa 0,0 mm O-SO 109 0,0 km/h (0 Bft)
21.12.2012 05:40 -0,9 C 96 % 1013,3 hPa 0,0 mm O-SO 109 0,0 km/h (0 Bft)
21.12.2012 05:45 -0,8 C 96 % 1013,3 hPa 0,2 mm O-SO 109 0,0 km/h (0 Bft)
21.12.2012 05:50 -0,8 C 96 % 1013,3 hPa 0,2 mm O-SO 109 0,0 km/h (0 Bft)
21.12.2012 05:55 -0,8 C 96 % 1013,3 hPa 0,0 mm O-SO 109 0,0 km/h (0 Bft)
21.12.2012 06:00 -0,8 C 96 % 1013,2 hPa 0,2 mm O-SO 109 0,0 km/h (0 Bft)
21.12.2012 06:05 -0,8 C 96 % 1013,3 hPa 0,0 mm O-SO 109 0,0 km/h (0 Bft)
21.12.2012 06:10 -0,8 C 97 % 1013,3 hPa 0,2 mm O-SO 109 0,0 km/h (0 Bft)
21.12.2012 06:15 -0,8 C 97 % 1013,3 hPa 0,0 mm O-SO 109 0,0 km/h (0 Bft)
21.12.2012 06:20 -0,8 C 97 % 1013,3 hPa 0,2 mm O-SO 109 0,0 km/h (0 Bft)
21.12.2012 06:25 -0,7 C 96 % 1013,3 hPa 0,2 mm O-SO 109 0,0 km/h (0 Bft)
21.12.2012 06:30 -0,8 C 97 % 1013,3 hPa 0,0 mm O-SO 109 0,0 km/h (0 Bft)
21.12.2012 06:35 -0,8 C 97 % 1013,2 hPa 0,0 mm O-SO 109 0,0 km/h (0 Bft)
21.12.2012 06:40 -0,8 C 97 % 1013,2 hPa 0,2 mm O-SO 109 0,0 km/h (0 Bft)
21.12.2012 06:45 -0,8 C 97 % 1013,3 hPa 0,2 mm O-SO 109 0,0 km/h (0 Bft)
21.12.2012 06:50 -0,8 C 97 % 1013,3 hPa 0,0 mm O-SO 109 0,0 km/h (0 Bft)
21.12.2012 06:55 -0,8 C 97 % 1013,3 hPa 0,2 mm O-SO 109 0,0 km/h (0 Bft)
21.12.2012 07:00 -0,7 C 97 % 1013,3 hPa 0,0 mm O-SO 109 0,0 km/h (0 Bft)
21.12.2012 07:05 -0,7 C 97 % 1013,2 hPa 0,2 mm O-SO 109 0,0 km/h (0 Bft)
21.12.2012 07:10 -0,7 C 97 % 1013,3 hPa 0,0 mm O-SO 109 0,0 km/h (0 Bft)
21.12.2012 07:15 -0,7 C 97 % 1013,4 hPa 0,2 mm O-SO 109 0,0 km/h (0 Bft)
21.12.2012 07:20 -0,7 C 97 % 1013,3 hPa 0,0 mm O-SO 109 0,0 km/h (0 Bft)
21.12.2012 07:25 -0,7 C 97 % 1013,4 hPa 0,2 mm O-SO 109 0,0 km/h (0 Bft)
21.12.2012 07:30 -0,7 C 97 % 1013,3 hPa 0,0 mm O-SO 109 0,0 km/h (0 Bft)
21.12.2012 07:35 -0,6 C 97 % 1013,3 hPa 0,2 mm O-SO 109 0,0 km/h (0 Bft)
21.12.2012 07:40 -0,6 C 97 % 1013,4 hPa 0,2 mm O-SO 109 0,0 km/h (0 Bft)
21.12.2012 07:45 -0,6 C 97 % 1013,3 hPa 0,0 mm O-SO 109 0,0 km/h (0 Bft)
21.12.2012 07:50 -0,6 C 97 % 1013,4 hPa 0,2 mm O-SO 109 0,0 km/h (0 Bft)
21.12.2012 07:55 -0,6 C 97 % 1013,4 hPa 0,0 mm O-SO 109 0,0 km/h (0 Bft)
21.12.2012 08:00 -0,5 C 97 % 1013,4 hPa 0,2 mm O-SO 109 0,0 km/h (0 Bft)
21.12.2012 08:05 -0,5 C 97 % 1013,4 hPa 0,0 mm O-SO 109 0,0 km/h (0 Bft)
21.12.2012 08:10 -0,5 C 97 % 1013,4 hPa 0,2 mm O-SO 109 0,0 km/h (0 Bft)
21.12.2012 08:15 -0,5 C 97 % 1013,4 hPa 0,0 mm O-SO 109 0,0 km/h (0 Bft)
21.12.2012 08:20 -0,4 C 97 % 1013,5 hPa 0,2 mm O-SO 109 0,0 km/h (0 Bft)
21.12.2012 08:25 -0,4 C 97 % 1013,5 hPa 0,0 mm O-SO 109 0,0 km/h (0 Bft)
21.12.2012 08:30 -0,4 C 97 % 1013,5 hPa 0,2 mm O-SO 109 0,0 km/h (0 Bft)
21.12.2012 08:35 -0,4 C 97 % 1013,6 hPa 0,0 mm O-SO 109 0,0 km/h (0 Bft)
21.12.2012 08:40 -0,4 C 97 % 1013,6 hPa 0,2 mm O-SO 109 0,0 km/h (0 Bft)
21.12.2012 08:45 -0,3 C 97 % 1013,6 hPa 0,0 mm O-SO 109 0,0 km/h (0 Bft)
21.12.2012 08:50 -0,3 C 97 % 1013,6 hPa 0,0 mm O-SO 109 0,0 km/h (0 Bft)
21.12.2012 08:55 -0,2 C 97 % 1013,7 hPa 0,2 mm O-SO 109 0,0 km/h (0 Bft)
21.12.2012 09:00 -0,2 C 97 % 1013,7 hPa 0,0 mm O-SO 109 0,0 km/h (0 Bft)
21.12.2012 09:05 -0,2 C 97 % 1013,7 hPa 0,0 mm O-SO 109 0,0 km/h (0 Bft)
21.12.2012 09:10 -0,1 C 97 % 1013,7 hPa 0,2 mm O-SO 109 0,0 km/h (0 Bft)
21.12.2012 09:15 0,0 C 97 % 1013,7 hPa 0,0 mm O-SO 109 0,0 km/h (0 Bft)
21.12.2012 09:20 0,0 C 97 % 1013,7 hPa 0,0 mm O-SO 109 0,0 km/h (0 Bft)
21.12.2012 09:25 0,1 C 97 % 1013,7 hPa 0,2 mm O-SO 109 0,0 km/h (0 Bft)
21.12.2012 09:30 0,1 C 97 % 1013,7 hPa 0,0 mm O-SO 109 0,0 km/h (0 Bft)
21.12.2012 09:35 0,1 C 97 % 1013,8 hPa 0,2 mm O-SO 109 0,0 km/h (0 Bft)
21.12.2012 09:40 0,0 C 97 % 1013,9 hPa 0,0 mm O-SO 109 0,0 km/h (0 Bft)
21.12.2012 09:45 -0,1 C 97 % 1013,9 hPa 0,0 mm O-SO 109 0,0 km/h (0 Bft)
21.12.2012 09:50 -0,1 C 97 % 1014,0 hPa 0,0 mm O-SO 109 0,0 km/h (0 Bft)
21.12.2012 09:55 0,1 C 97 % 1014,1 hPa 0,2 mm O-SO 109 0,0 km/h (0 Bft)
21.12.2012 10:00 0,1 C 97 % 1014,1 hPa 0,2 mm O-SO 109 0,0 km/h (0 Bft)
21.12.2012 10:05 0,2 C 97 % 1014,2 hPa 0,0 mm O-SO 109 0,0 km/h (0 Bft)
21.12.2012 10:10 0,3 C 97 % 1014,2 hPa 0,0 mm O-SO 109 0,0 km/h (0 Bft)
21.12.2012 10:15 0,4 C 97 % 1014,2 hPa 0,2 mm O-SO 109 0,0 km/h (0 Bft)
21.12.2012 10:20 0,4 C 97 % 1014,2 hPa 0,2 mm O-SO 109 0,0 km/h (0 Bft)
21.12.2012 10:25 0,4 C 97 % 1014,2 hPa 0,0 mm O-SO 109 0,0 km/h (0 Bft)
21.12.2012 10:30 0,5 C 97 % 1014,2 hPa 0,0 mm O-SO 109 0,0 km/h (0 Bft)
21.12.2012 10:35 0,6 C 97 % 1014,2 hPa 0,0 mm O-SO 109 0,0 km/h (0 Bft)
21.12.2012 10:40 0,6 C 97 % 1014,1 hPa 0,0 mm O-SO 109 0,0 km/h (0 Bft)
21.12.2012 10:45 0,7 C 97 % 1014,1 hPa 0,2 mm O-SO 109 0,0 km/h (0 Bft)
21.12.2012 10:50 0,7 C 97 % 1014,1 hPa 0,0 mm O-SO 109 0,0 km/h (0 Bft)
21.12.2012 10:55 0,7 C 97 % 1014,1 hPa 0,0 mm O-SO 109 0,0 km/h (0 Bft)
21.12.2012 11:00 0,6 C 97 % 1014,1 hPa 0,0 mm O-SO 109 0,0 km/h (0 Bft)
21.12.2012 11:05 0,6 C 97 % 1014,1 hPa 0,0 mm O-SO 109 0,0 km/h (0 Bft)
21.12.2012 11:10 0,7 C 97 % 1014,1 hPa 0,0 mm O-SO 109 0,0 km/h (0 Bft)
21.12.2012 11:15 0,6 C 97 % 1014,1 hPa 0,0 mm O-SO 109 0,0 km/h (0 Bft)
21.12.2012 11:20 0,6 C 97 % 1014,1 hPa 0,2 mm O-SO 109 0,0 km/h (0 Bft)
21.12.2012 11:25 0,6 C 97 % 1014,1 hPa 0,0 mm O-SO 109 0,0 km/h (0 Bft)
21.12.2012 11:30 0,6 C 97 % 1014,1 hPa 0,0 mm O-SO 109 0,0 km/h (0 Bft)
21.12.2012 11:35 0,7 C 97 % 1014,0 hPa 0,0 mm O-SO 109 0,0 km/h (0 Bft)
21.12.2012 11:40 0,6 C 97 % 1014,1 hPa 0,0 mm O-SO 109 0,0 km/h (0 Bft)
21.12.2012 11:45 0,6 C 97 % 1014,1 hPa 0,0 mm O-SO 109 0,0 km/h (0 Bft)
21.12.2012 11:50 0,7 C 97 % 1014,0 hPa 0,0 mm O-SO 109 0,0 km/h (0 Bft)
21.12.2012 11:55 0,7 C 97 % 1014,0 hPa 0,0 mm O-SO 109 0,0 km/h (0 Bft)
21.12.2012 12:00 0,7 C 97 % 1014,0 hPa 0,0 mm O-SO 109 0,0 km/h (0 Bft)
21.12.2012 12:05 0,7 C 97 % 1014,0 hPa 0,2 mm O-SO 109 0,0 km/h (0 Bft)
21.12.2012 12:10 0,7 C 97 % 1013,9 hPa 0,0 mm O-SO 109 0,0 km/h (0 Bft)
21.12.2012 12:15 0,8 C 97 % 1013,8 hPa 0,0 mm O-SO 109 0,0 km/h (0 Bft)
21.12.2012 12:20 0,8 C 97 % 1013,9 hPa 0,0 mm O-SO 109 3,2 km/h (1 Bft)
21.12.2012 12:25 0,8 C 97 % 1013,9 hPa 0,2 mm O-SO 109 1,6 km/h (1 Bft)
21.12.2012 12:30 0,8 C 97 % 1013,9 hPa 0,0 mm O-SO 109 0,0 km/h (0 Bft)
21.12.2012 12:35 0,8 C 97 % 1014,0 hPa 0,0 mm O-SO 109 0,0 km/h (0 Bft)
21.12.2012 12:40 0,7 C 97 % 1013,9 hPa 0,2 mm O-SO 109 0,0 km/h (0 Bft)
21.12.2012 12:45 0,8 C 97 % 1013,9 hPa 0,0 mm O-SO 109 0,0 km/h (0 Bft)
21.12.2012 12:50 0,8 C 97 % 1013,8 hPa 0,2 mm O-SO 109 0,0 km/h (0 Bft)
21.12.2012 12:55 0,8 C 97 % 1013,9 hPa 0,0 mm O-SO 109 0,0 km/h (0 Bft)
21.12.2012 13:00 0,8 C 97 % 1013,8 hPa 0,2 mm O-SO 109 0,0 km/h (0 Bft)
21.12.2012 13:05 0,8 C 97 % 1013,8 hPa 0,2 mm O-SO 109 0,0 km/h (0 Bft)
21.12.2012 13:10 0,8 C 97 % 1013,8 hPa 0,0 mm O-SO 109 0,0 km/h (0 Bft)
21.12.2012 13:15 0,9 C 97 % 1013,9 hPa 0,2 mm O-SO 109 0,0 km/h (0 Bft)
21.12.2012 13:20 0,9 C 97 % 1013,9 hPa 0,2 mm O-SO 109 0,0 km/h (0 Bft)
21.12.2012 13:25 0,9 C 97 % 1013,9 hPa 0,0 mm O-SO 109 0,0 km/h (0 Bft)
21.12.2012 13:30 0,9 C 97 % 1013,9 hPa 0,2 mm O-SO 109 0,0 km/h (0 Bft)
21.12.2012 13:35 0,9 C 97 % 1013,9 hPa 0,0 mm O-SO 109 0,0 km/h (0 Bft)
21.12.2012 13:40 1,0 C 97 % 1013,9 hPa 0,2 mm O-SO 109 0,0 km/h (0 Bft)
21.12.2012 13:45 1,0 C 97 % 1013,8 hPa 0,0 mm O-SO 109 0,0 km/h (0 Bft)
21.12.2012 13:50 1,0 C 97 % 1013,9 hPa 0,0 mm O-SO 109 0,0 km/h (0 Bft)
21.12.2012 13:55 1,1 C 97 % 1013,9 hPa 0,2 mm O-SO 109 0,0 km/h (0 Bft)
21.12.2012 14:00 1,1 C 97 % 1013,9 hPa 0,0 mm O-SO 109 0,0 km/h (0 Bft)
21.12.2012 14:05 1,1 C 97 % 1014,0 hPa 0,2 mm O-SO 109 0,0 km/h (0 Bft)
21.12.2012 14:10 1,2 C 97 % 1014,0 hPa 0,0 mm O-SO 109 0,0 km/h (0 Bft)
21.12.2012 14:15 1,2 C 97 % 1014,1 hPa 0,0 mm O-SO 109 0,0 km/h (0 Bft)
21.12.2012 14:20 1,1 C 97 % 1014,1 hPa 0,2 mm O-SO 109 0,0 km/h (0 Bft)
21.12.2012 14:25 1,1 C 97 % 1014,2 hPa 0,0 mm O-SO 109 0,0 km/h (0 Bft)
21.12.2012 14:30 1,2 C 97 % 1014,1 hPa 0,0 mm O-SO 109 0,0 km/h (0 Bft)
21.12.2012 14:35 1,1 C 97 % 1014,2 hPa 0,2 mm O-SO 109 0,0 km/h (0 Bft)
21.12.2012 14:40 1,1 C 97 % 1014,2 hPa 0,0 mm O-SO 109 0,0 km/h (0 Bft)
21.12.2012 14:45 1,2 C 97 % 1014,1 hPa 0,0 mm O-SO 109 0,0 km/h (0 Bft)
21.12.2012 14:50 1,1 C 97 % 1014,1 hPa 0,0 mm O-SO 109 1,6 km/h (1 Bft)
21.12.2012 14:55 1,1 C 97 % 1014,2 hPa 0,0 mm O-SO 109 0,0 km/h (0 Bft)
21.12.2012 15:00 1,2 C 97 % 1014,2 hPa 0,0 mm O-SO 109 0,0 km/h (0 Bft)
21.12.2012 15:05 1,2 C 97 % 1014,2 hPa 0,2 mm O-SO 109 0,0 km/h (0 Bft)
21.12.2012 15:10 1,1 C 97 % 1014,3 hPa 0,0 mm O-SO 109 0,0 km/h (0 Bft)
21.12.2012 15:15 1,2 C 97 % 1014,4 hPa 0,0 mm O-SO 109 0,0 km/h (0 Bft)
21.12.2012 15:20 1,3 C 97 % 1014,4 hPa 0,2 mm O-SO 109 0,0 km/h (0 Bft)
21.12.2012 15:25 1,3 C 98 % 1014,4 hPa 0,0 mm O-SO 109 0,0 km/h (0 Bft)
21.12.2012 15:30 1,2 C 97 % 1014,4 hPa 0,0 mm O-SO 109 0,0 km/h (0 Bft)
21.12.2012 15:35 1,2 C 97 % 1014,4 hPa 0,2 mm O-SO 109 0,0 km/h (0 Bft)
21.12.2012 15:40 1,2 C 97 % 1014,4 hPa 0,0 mm O-SO 109 0,0 km/h (0 Bft)
21.12.2012 15:45 1,3 C 98 % 1014,5 hPa 0,2 mm O-SO 109 0,0 km/h (0 Bft)
21.12.2012 15:50 1,4 C 98 % 1014,5 hPa 0,0 mm O-SO 109 0,0 km/h (0 Bft)
21.12.2012 15:55 1,3 C 98 % 1014,5 hPa 0,2 mm O-SO 109 0,0 km/h (0 Bft)
21.12.2012 16:00 1,3 C 98 % 1014,6 hPa 0,0 mm O-SO 109 0,0 km/h (0 Bft)
21.12.2012 16:05 1,4 C 97 % 1014,6 hPa 0,2 mm O-SO 109 0,0 km/h (0 Bft)
21.12.2012 16:10 1,2 C 97 % 1014,5 hPa 0,0 mm O-SO 109 0,0 km/h (0 Bft)
21.12.2012 16:15 1,2 C 97 % 1014,6 hPa 0,2 mm O-SO 109 0,0 km/h (0 Bft)
21.12.2012 16:20 1,1 C 97 % 1014,6 hPa 0,0 mm O-SO 109 0,0 km/h (0 Bft)
21.12.2012 16:25 1,1 C 97 % 1014,6 hPa 0,0 mm O-SO 109 0,0 km/h (0 Bft)
21.12.2012 16:30 1,1 C 97 % 1014,6 hPa 0,0 mm O-SO 109 0,0 km/h (0 Bft)
21.12.2012 16:35 1,2 C 97 % 1014,6 hPa 0,0 mm O-SO 109 0,0 km/h (0 Bft)
21.12.2012 16:40 1,4 C 98 % 1014,6 hPa 0,0 mm O-SO 109 0,0 km/h (0 Bft)
21.12.2012 16:45 2,0 C 98 % 1014,7 hPa 0,0 mm O-SO 109 0,0 km/h (0 Bft)
21.12.2012 16:50 2,2 C 98 % 1014,7 hPa 0,0 mm O-SO 109 0,0 km/h (0 Bft)
21.12.2012 16:55 2,3 C 98 % 1014,7 hPa 0,0 mm O-SO 109 0,0 km/h (0 Bft)
21.12.2012 17:00 2,2 C 98 % 1014,8 hPa 0,0 mm O-SO 109 0,0 km/h (0 Bft)
21.12.2012 17:05 2,4 C 98 % 1014,8 hPa 0,2 mm SW 232 3,2 km/h (1 Bft)
21.12.2012 17:10 2,7 C 98 % 1014,9 hPa 0,0 mm W 261 9,7 km/h (2 Bft)
21.12.2012 17:15 2,7 C 98 % 1014,9 hPa 0,0 mm W-NW 287 8,0 km/h (2 Bft)
21.12.2012 17:20 2,8 C 98 % 1015,0 hPa 0,0 mm W 269 14,5 km/h (3 Bft)
21.12.2012 17:25 2,9 C 98 % 1015,1 hPa 0,2 mm W 281 11,3 km/h (2 Bft)
21.12.2012 17:30 2,8 C 98 % 1015,1 hPa 0,0 mm W 262 12,9 km/h (3 Bft)
21.12.2012 17:35 2,8 C 97 % 1015,1 hPa 0,0 mm W 279 11,3 km/h (2 Bft)
21.12.2012 17:40 2,8 C 97 % 1015,2 hPa 0,0 mm W 277 11,3 km/h (2 Bft)
21.12.2012 17:45 2,8 C 97 % 1015,2 hPa 0,0 mm W-NW 285 6,4 km/h (2 Bft)
21.12.2012 17:50 2,8 C 97 % 1015,2 hPa 0,2 mm W 267 8,0 km/h (2 Bft)
21.12.2012 17:55 2,8 C 97 % 1015,3 hPa 0,0 mm W-NW 297 8,0 km/h (2 Bft)
21.12.2012 18:00 2,7 C 96 % 1015,4 hPa 0,0 mm W 265 4,8 km/h (1 Bft)
21.12.2012 18:05 2,7 C 96 % 1015,4 hPa 0,0 mm W 262 4,8 km/h (1 Bft)
21.12.2012 18:10 2,7 C 96 % 1015,5 hPa 0,0 mm W 273 4,8 km/h (1 Bft)
21.12.2012 18:15 2,7 C 96 % 1015,5 hPa 0,0 mm W 273 3,2 km/h (1 Bft)
21.12.2012 18:20 2,7 C 96 % 1015,6 hPa 0,0 mm W 274 1,6 km/h (1 Bft)
21.12.2012 18:25 2,7 C 96 % 1015,7 hPa 0,0 mm W 268 3,2 km/h (1 Bft)
21.12.2012 18:30 2,6 C 96 % 1015,8 hPa 0,0 mm W 273 4,8 km/h (1 Bft)
21.12.2012 18:35 2,6 C 96 % 1015,9 hPa 0,2 mm W 273 3,2 km/h (1 Bft)
21.12.2012 18:40 2,7 C 96 % 1015,9 hPa 0,0 mm W 267 6,4 km/h (2 Bft)
21.12.2012 18:45 2,7 C 96 % 1016,0 hPa 0,0 mm W 273 6,4 km/h (2 Bft)
21.12.2012 18:50 2,7 C 96 % 1016,1 hPa 0,0 mm W 274 6,4 km/h (2 Bft)
21.12.2012 18:55 2,7 C 96 % 1016,2 hPa 0,0 mm W 280 6,4 km/h (2 Bft)
21.12.2012 19:00 2,7 C 96 % 1016,2 hPa 0,0 mm W-NW 284 4,8 km/h (1 Bft)
21.12.2012 19:05 2,8 C 96 % 1016,2 hPa 0,0 mm W-SW 246 6,4 km/h (2 Bft)
21.12.2012 19:10 2,8 C 96 % 1016,3 hPa 0,0 mm W 264 8,0 km/h (2 Bft)
21.12.2012 19:15 2,8 C 96 % 1016,4 hPa 0,0 mm W-NW 282 9,7 km/h (2 Bft)
21.12.2012 19:20 2,8 C 96 % 1016,5 hPa 0,0 mm W 274 8,0 km/h (2 Bft)
21.12.2012 19:25 2,7 C 96 % 1016,5 hPa 0,0 mm W 266 6,4 km/h (2 Bft)
21.12.2012 19:30 2,8 C 96 % 1016,6 hPa 0,2 mm W-SW 248 6,4 km/h (2 Bft)
21.12.2012 19:35 2,8 C 96 % 1016,6 hPa 0,0 mm W 273 6,4 km/h (2 Bft)
21.12.2012 19:40 2,8 C 96 % 1016,6 hPa 0,0 mm W 272 9,7 km/h (2 Bft)
21.12.2012 19:45 2,8 C 95 % 1016,7 hPa 0,0 mm W-SW 258 4,8 km/h (1 Bft)
21.12.2012 19:50 2,8 C 95 % 1016,7 hPa 0,0 mm W 277 8,0 km/h (2 Bft)
21.12.2012 19:55 2,8 C 95 % 1016,8 hPa 0,0 mm W 266 6,4 km/h (2 Bft)
21.12.2012 20:00 2,8 C 95 % 1016,9 hPa 0,0 mm W-SW 240 8,0 km/h (2 Bft)
21.12.2012 20:05 2,7 C 95 % 1016,9 hPa 0,0 mm W 263 6,4 km/h (2 Bft)
21.12.2012 20:10 2,7 C 95 % 1017,0 hPa 0,0 mm W 265 6,4 km/h (2 Bft)
21.12.2012 20:15 2,7 C 95 % 1017,0 hPa 0,0 mm W 269 9,7 km/h (2 Bft)
21.12.2012 20:20 2,7 C 96 % 1017,0 hPa 0,0 mm W 259 6,4 km/h (2 Bft)
21.12.2012 20:25 2,7 C 96 % 1017,1 hPa 0,0 mm W 276 8,0 km/h (2 Bft)
21.12.2012 20:30 2,7 C 96 % 1017,1 hPa 0,0 mm W-SW 251 6,4 km/h (2 Bft)
21.12.2012 20:35 2,7 C 96 % 1017,1 hPa 0,0 mm W 264 6,4 km/h (2 Bft)
21.12.2012 20:40 2,7 C 96 % 1017,1 hPa 0,0 mm W-NW 301 6,4 km/h (2 Bft)
21.12.2012 20:45 2,7 C 96 % 1017,1 hPa 0,0 mm W 264 4,8 km/h (1 Bft)
21.12.2012 20:50 2,7 C 96 % 1017,2 hPa 0,0 mm W 260 6,4 km/h (2 Bft)
21.12.2012 20:55 2,7 C 96 % 1017,3 hPa 0,0 mm W 267 8,0 km/h (2 Bft)
21.12.2012 21:00 2,7 C 96 % 1017,4 hPa 0,0 mm W 271 6,4 km/h (2 Bft)
21.12.2012 21:05 2,7 C 96 % 1017,4 hPa 0,0 mm W 274 9,7 km/h (2 Bft)
21.12.2012 21:10 2,7 C 96 % 1017,3 hPa 0,0 mm W 267 6,4 km/h (2 Bft)
21.12.2012 21:15 2,7 C 96 % 1017,4 hPa 0,0 mm W-SW 251 6,4 km/h (2 Bft)
21.12.2012 21:20 2,7 C 95 % 1017,5 hPa 0,0 mm W 269 8,0 km/h (2 Bft)
21.12.2012 21:25 2,7 C 95 % 1017,5 hPa 0,2 mm W-SW 256 12,9 km/h (3 Bft)
21.12.2012 21:30 2,7 C 95 % 1017,5 hPa 0,0 mm W 268 8,0 km/h (2 Bft)
21.12.2012 21:35 2,8 C 95 % 1017,6 hPa 0,0 mm W 279 9,7 km/h (2 Bft)
21.12.2012 21:40 2,8 C 95 % 1017,6 hPa 0,0 mm W 266 8,0 km/h (2 Bft)
21.12.2012 21:45 2,8 C 95 % 1017,7 hPa 0,0 mm W 259 8,0 km/h (2 Bft)
21.12.2012 21:50 2,8 C 95 % 1017,7 hPa 0,0 mm SW 234 6,4 km/h (2 Bft)
21.12.2012 21:55 2,8 C 95 % 1017,7 hPa 0,0 mm W 278 6,4 km/h (2 Bft)
21.12.2012 22:00 2,8 C 95 % 1017,7 hPa 0,0 mm W-SW 238 8,0 km/h (2 Bft)
21.12.2012 22:05 2,8 C 95 % 1017,8 hPa 0,0 mm W 269 9,7 km/h (2 Bft)
21.12.2012 22:10 2,8 C 95 % 1017,8 hPa 0,0 mm W 269 9,7 km/h (2 Bft)
21.12.2012 22:15 2,8 C 95 % 1017,8 hPa 0,0 mm W 270 6,4 km/h (2 Bft)
21.12.2012 22:20 2,8 C 95 % 1017,8 hPa 0,0 mm W 267 9,7 km/h (2 Bft)
21.12.2012 22:25 2,8 C 95 % 1017,8 hPa 0,0 mm W 266 8,0 km/h (2 Bft)
21.12.2012 22:30 2,8 C 95 % 1017,8 hPa 0,2 mm W 266 8,0 km/h (2 Bft)
21.12.2012 22:35 2,8 C 95 % 1017,9 hPa 0,0 mm W 268 8,0 km/h (2 Bft)
21.12.2012 22:40 2,8 C 95 % 1017,9 hPa 0,0 mm W 267 11,3 km/h (2 Bft)
21.12.2012 22:45 2,8 C 95 % 1018,0 hPa 0,0 mm W-SW 257 8,0 km/h (2 Bft)
21.12.2012 22:50 2,8 C 95 % 1017,9 hPa 0,0 mm W-SW 253 9,7 km/h (2 Bft)
21.12.2012 22:55 2,8 C 95 % 1018,0 hPa 0,0 mm W 269 9,7 km/h (2 Bft)
21.12.2012 23:00 2,8 C 95 % 1018,1 hPa 0,0 mm W 259 9,7 km/h (2 Bft)
21.12.2012 23:05 2,8 C 95 % 1018,2 hPa 0,0 mm W 268 9,7 km/h (2 Bft)
21.12.2012 23:10 2,8 C 95 % 1018,3 hPa 0,2 mm W-NW 299 8,0 km/h (2 Bft)
21.12.2012 23:15 2,8 C 95 % 1018,3 hPa 0,0 mm W 265 6,4 km/h (2 Bft)
21.12.2012 23:20 2,9 C 95 % 1018,4 hPa 0,0 mm W 265 6,4 km/h (2 Bft)
21.12.2012 23:25 2,9 C 95 % 1018,3 hPa 0,0 mm W 263 8,0 km/h (2 Bft)
21.12.2012 23:30 2,9 C 95 % 1018,4 hPa 0,2 mm W 275 8,0 km/h (2 Bft)
21.12.2012 23:35 2,9 C 95 % 1018,4 hPa 0,0 mm W 266 4,8 km/h (1 Bft)
21.12.2012 23:40 2,8 C 95 % 1018,4 hPa 0,2 mm W-NW 283 6,4 km/h (2 Bft)
21.12.2012 23:45 2,9 C 95 % 1018,4 hPa 0,0 mm W 266 9,7 km/h (2 Bft)
21.12.2012 23:50 2,9 C 95 % 1018,4 hPa 0,0 mm W 270 6,4 km/h (2 Bft)
21.12.2012 23:55 2,9 C 96 % 1018,5 hPa 0,0 mm W 271 6,4 km/h (2 Bft)
_ Min-Zeit 00:05 01:25 06:00 - - - 00:05
Minimum _ -1,9 C 95 % 1013,2 hPa - - - 0,0 km/h (0 Bft)
_ Max-Zeit 17:25 15:25 23:55 05:15 - - 17:20
Maximum _ 2,9 C 98 % 1018,5 hPa 0,2 mm - - 14,5 km/h
W-NW (3 Bft)
Durchschnitt _ 0,7 C 96 % 1014,8 hPa #12,6 mm O-SO - 2,4 km/h (1 Bft)